Atlanta, GA

10:31 AM EDT on September 30, 2016 (GMT -0400)
Fulton County-Brown

Weather History for KFTY - November, 2013

Change the Weather History Date:

Monday, November 4, 2013

  Actual Average Record
Temperature  
Mean Temperature 51 °F 57 °F  
Max Temperature 64 °F 68 °F 77 °F (2005)
Min Temperature 37 °F 45 °F 28 °F (1999)
Degree Days  
Heating Degree Days 14 9  
Month to date heating degree days 32 35  
Since 1 July heating degree days 147 178  
Growing Degree Days 2 (Base 50)    
Moisture  
Dew Point 37 °F    
Average Humidity 64    
Maximum Humidity 96    
Minimum Humidity 31    
Precipitation  
Precipitation 0.00 in 0.11 in 1.36 in (1968)
Month to date precipitation 0.32 0.44  
Year to date precipitation 43.45  
Snow  
Snow 0.00 in - - ()
Month to date snowfall 0.0  
Since 1 July snowfall 0.0  
Since 1 September snowfall 0.0  
Snow Depth 0.00 in    
Sea Level Pressure  
Sea Level Pressure 30.38 in    
Wind  
Wind Speed 6 mph (ENE)    
Max Wind Speed 17 mph    
Max Gust Speed 22 mph    
Visibility 10 miles    
Events      
T = Trace of Precipitation, MM = Missing Value Source: NWS Daily Summary

Daily Weather History Graph

Daily Weather History Graph

Search for Another Location

Airport or City:

Trip Planner

Search our weather history database for the weather conditions in past years. The results will help you decide how hot, cold, wet, or windy it might be!

Date:

Astronomy

Nov. 04, 2013 Rise Set
Actual Time 7:00 AM EST 5:42 PM EST
Civil Twilight 6:34 AM EST 6:08 PM EST
Nautical Twilight 6:04 AM EST 6:38 PM EST
Astronomical Twilight 5:35 AM EST 7:07 PM EST
Moon 8:06 AM EST (11/4) 6:50 PM EST (11/4)
Length of Visible Light 11h 34m
Length of Day
10h 42m
New Moon, 2% of the Moon is Illuminated
Nov 4
New Moon
Nov 10
First Quarter
Nov 17
Full
Nov 25
Last Quarter
Dec 2
New

Hourly Weather History & Observations

Time (EST) Temp. Windchill Dew Point Humidity Pressure Visibility Wind Dir Wind Speed Gust Speed Precip Events Conditions
12:53 AM 41.0 °F - 39.0 °F 93% 30.31 in 9.0 mi Calm Calm - N/A   Clear
1:53 AM 39.9 °F - 37.9 °F 93% 30.32 in 7.0 mi Calm Calm - N/A   Clear
2:53 AM 39.9 °F - 37.9 °F 93% 30.32 in 9.0 mi Calm Calm - N/A   Clear
3:53 AM 39.9 °F 37.8 °F 37.0 °F 89% 30.34 in 10.0 mi ENE 3.5 mph - N/A   Clear
4:53 AM 39.9 °F 37.8 °F 37.0 °F 89% 30.34 in 10.0 mi NE 3.5 mph - N/A   Clear
5:53 AM 41.0 °F 39.0 °F 39.0 °F 93% 30.35 in 10.0 mi NNE 3.5 mph - N/A   Clear
6:53 AM 41.0 °F 38.0 °F 37.0 °F 86% 30.38 in 10.0 mi ENE 4.6 mph - N/A   Clear
7:53 AM 45.0 °F 41.2 °F 39.0 °F 80% 30.40 in 10.0 mi NNE 6.9 mph - N/A   Clear
8:53 AM 48.9 °F - 39.0 °F 69% 30.43 in 10.0 mi NE 9.2 mph - N/A   Clear
9:53 AM 54.0 °F - 39.0 °F 57% 30.43 in 10.0 mi East 9.2 mph - N/A   Clear
10:53 AM 57.9 °F - 37.9 °F 47% 30.42 in 10.0 mi East 13.8 mph 20.7 mph N/A   Clear
11:53 AM 60.1 °F - 37.0 °F 42% 30.42 in 10.0 mi ESE 10.4 mph 20.7 mph N/A   Clear
12:53 PM 62.1 °F - 36.0 °F 38% 30.40 in 10.0 mi East 9.2 mph - N/A   Clear
1:53 PM 62.1 °F - 35.1 °F 37% 30.38 in 10.0 mi East 10.4 mph - N/A   Clear
2:53 PM 64.0 °F - 34.0 °F 33% 30.36 in 10.0 mi ESE 9.2 mph - N/A   Clear
3:53 PM 64.0 °F - 34.0 °F 33% 30.37 in 10.0 mi East 11.5 mph - N/A   Clear
4:53 PM 62.1 °F - 34.0 °F 35% 30.37 in 10.0 mi East 10.4 mph - N/A   Clear
5:53 PM 59.0 °F - 35.1 °F 41% 30.37 in 10.0 mi East 8.1 mph - N/A   Clear
6:53 PM 57.0 °F - 35.1 °F 44% 30.38 in 10.0 mi East 6.9 mph - N/A   Clear
7:53 PM 53.1 °F - 36.0 °F 52% 30.39 in 10.0 mi ENE 3.5 mph - N/A   Clear
8:53 PM 50.0 °F - 37.0 °F 61% 30.42 in 10.0 mi NNE 3.5 mph - N/A   Clear
9:53 PM 51.1 °F - 37.0 °F 59% 30.42 in 10.0 mi ENE 4.6 mph - N/A   Clear
10:53 PM 53.1 °F - 35.1 °F 50% 30.41 in 10.0 mi East 5.8 mph - N/A   Clear
11:53 PM 51.1 °F - 35.1 °F 54% 30.42 in 10.0 mi ENE 5.8 mph - N/A   Clear